Arvin
DateTemperatureDew Point
05/02 - 06:30 AM55.0°50.7°
05/02 - 06:15 AM54.4°49.8°
05/02 - 06:00 AM54.4°49.7°
05/02 - 05:45 AM54.7°49.9°
05/02 - 05:30 AM55.6°50.2°
05/02 - 05:15 AM56.5°50.1°
05/02 - 05:00 AM56.8°50.0°
05/02 - 04:45 AM56.4°50.4°
05/02 - 04:30 AM56.4°50.6°
05/02 - 04:15 AM57.1°50.9°
05/02 - 04:00 AM58.1°51.4°
05/02 - 03:45 AM57.8°50.4°
05/02 - 03:30 AM56.5°50.5°
05/02 - 03:15 AM56.7°51.2°
05/02 - 03:00 AM57.6°51.7°
05/02 - 02:45 AM58.4°51.8°
05/02 - 02:30 AM58.1°51.6°
05/02 - 02:15 AM57.9°51.9°
05/02 - 02:00 AM58.3°52.1°
05/02 - 01:45 AM58.5°52.3°
05/02 - 01:30 AM58.7°52.7°
05/02 - 01:15 AM60.0°53.2°
05/02 - 01:00 AM61.2°53.3°
05/02 - 12:45 AM62.3°53.5°
05/02 - 12:30 AM62.9°53.1°
05/02 - 12:15 AM63.5°53.3°
05/02 - 12:00 AM64.4°53.3°
05/01 - 11:45 PM65.9°53.5°
05/01 - 11:30 PM67.9°53.0°
05/01 - 11:15 PM68.8°52.3°
05/01 - 11:00 PM68.7°52.0°
05/01 - 10:45 PM68.5°52.2°
05/01 - 10:30 PM68.7°52.9°
05/01 - 10:15 PM69.5°53.1°
05/01 - 10:00 PM70.4°52.8°
05/01 - 09:45 PM70.5°53.2°
05/01 - 09:30 PM70.3°53.2°
05/01 - 09:15 PM68.8°53.2°
05/01 - 09:00 PM67.7°53.3°
05/01 - 08:45 PM67.8°53.7°
05/01 - 08:30 PM68.2°54.9°
05/01 - 08:15 PM68.6°55.2°
05/01 - 08:00 PM69.1°56.4°
05/01 - 07:45 PM70.1°57.8°
05/01 - 07:30 PM72.0°60.3°
05/01 - 07:15 PM75.4°62.2°
05/01 - 07:00 PM79.4°62.9°
05/01 - 06:45 PM81.3°58.7°
05/01 - 06:30 PM82.8°58.8°
05/01 - 06:15 PM83.9°58.1°
05/01 - 06:00 PM84.7°56.9°
05/01 - 05:45 PM85.8°56.7°
05/01 - 05:30 PM86.8°55.4°
05/01 - 05:15 PM87.3°56.4°
05/01 - 05:00 PM87.6°56.7°
05/01 - 04:45 PM88.3°56.9°
05/01 - 04:30 PM89.1°57.1°
05/01 - 04:15 PM89.6°57.1°
05/01 - 04:00 PM89.3°56.5°
05/01 - 03:45 PM89.4°57.0°
05/01 - 03:30 PM89.1°56.6°
05/01 - 03:15 PM89.3°57.1°
05/01 - 03:00 PM89.9°57.6°
05/01 - 02:45 PM90.0°58.1°
05/01 - 02:30 PM89.3°57.1°
05/01 - 02:15 PM89.3°56.9°
05/01 - 02:00 PM89.1°58.4°
05/01 - 01:45 PM89.5°58.5°
05/01 - 01:30 PM88.5°58.6°
05/01 - 01:15 PM88.5°58.5°
05/01 - 01:00 PM87.6°58.1°
05/01 - 12:45 PM87.3°58.7°
05/01 - 12:30 PM87.0°59.8°
05/01 - 12:15 PM86.5°59.2°
05/01 - 12:00 PM85.9°59.3°
05/01 - 11:45 AM85.2°58.4°
05/01 - 11:30 AM84.7°58.9°
05/01 - 11:15 AM83.8°59.3°
05/01 - 11:00 AM82.4°58.5°
05/01 - 10:45 AM81.9°58.4°
05/01 - 10:30 AM80.6°58.1°
05/01 - 10:15 AM80.1°57.7°
05/01 - 10:00 AM79.3°57.2°
05/01 - 09:45 AM78.6°56.8°
05/01 - 09:30 AM77.1°55.5°
05/01 - 09:15 AM76.5°55.3°
05/01 - 09:00 AM75.7°55.2°
05/01 - 08:45 AM74.6°55.4°
05/01 - 08:30 AM72.6°55.6°
05/01 - 08:15 AM70.2°56.4°
05/01 - 08:00 AM67.9°56.7°
05/01 - 07:45 AM65.9°56.4°
05/01 - 07:30 AM64.1°55.5°
05/01 - 07:15 AM63.0°54.8°
05/01 - 07:00 AM60.8°51.9°
05/01 - 06:45 AM58.2°50.8°
05/01 - 06:30 AM57.3°50.2°
05/01 - 06:15 AM56.3°49.4°
05/01 - 06:00 AM54.9°49.0°
05/01 - 05:45 AM55.1°49.3°
05/01 - 05:30 AM55.5°49.2°
05/01 - 05:15 AM56.3°49.4°
05/01 - 05:00 AM55.6°48.9°
05/01 - 04:45 AM55.6°49.2°
05/01 - 04:30 AM55.4°49.1°
05/01 - 04:15 AM55.7°49.5°
05/01 - 04:00 AM56.6°49.7°
05/01 - 03:45 AM57.8°50.0°
05/01 - 03:30 AM59.4°50.5°
05/01 - 03:15 AM60.7°49.7°
05/01 - 03:00 AM60.7°48.6°
05/01 - 02:45 AM60.7°49.1°
05/01 - 02:30 AM62.1°49.5°
05/01 - 02:15 AM63.3°48.9°
05/01 - 02:00 AM63.4°48.5°
05/01 - 01:45 AM62.7°48.4°
05/01 - 01:30 AM61.3°48.2°
05/01 - 01:15 AM60.0°49.1°
05/01 - 01:00 AM59.7°49.1°
05/01 - 12:45 AM60.3°50.3°
05/01 - 12:30 AM61.7°51.0°
05/01 - 12:15 AM63.3°50.2°
05/01 - 12:00 AM64.9°49.2°
04/30 - 11:45 PM65.3°48.8°
04/30 - 11:30 PM64.6°48.8°
04/30 - 11:15 PM64.1°49.1°
04/30 - 11:00 PM64.2°49.2°
04/30 - 10:45 PM64.9°49.9°
04/30 - 10:30 PM66.1°49.8°
04/30 - 10:15 PM66.5°49.6°
04/30 - 10:00 PM66.6°49.5°
04/30 - 09:45 PM66.8°49.9°
04/30 - 09:30 PM66.1°49.9°
04/30 - 09:15 PM64.3°49.6°
04/30 - 09:00 PM63.2°50.6°
04/30 - 08:45 PM63.8°51.9°
04/30 - 08:30 PM64.3°52.5°
04/30 - 08:15 PM64.7°53.5°
04/30 - 08:00 PM64.9°54.0°
04/30 - 07:45 PM66.1°55.4°
04/30 - 07:30 PM68.2°55.7°
04/30 - 07:15 PM71.7°55.9°
04/30 - 07:00 PM74.8°56.4°
04/30 - 06:45 PM77.4°55.8°
04/30 - 06:30 PM79.0°54.1°
04/30 - 06:15 PM79.9°52.7°
04/30 - 06:00 PM80.6°52.5°
04/30 - 05:45 PM81.3°52.2°
04/30 - 05:30 PM82.0°52.5°
04/30 - 05:15 PM82.6°52.8°
04/30 - 05:00 PM82.9°52.6°
04/30 - 04:45 PM83.5°52.9°
04/30 - 04:30 PM84.0°53.6°
04/30 - 04:15 PM83.9°53.8°
04/30 - 04:00 PM84.5°54.0°
04/30 - 03:45 PM84.6°54.2°
04/30 - 03:30 PM83.9°53.5°
04/30 - 03:15 PM83.8°53.2°
04/30 - 03:00 PM84.2°53.0°
04/30 - 02:45 PM85.0°53.3°
04/30 - 02:30 PM84.8°53.0°
04/30 - 02:15 PM84.5°53.0°
04/30 - 02:00 PM84.6°53.2°
04/30 - 01:45 PM83.6°53.5°
04/30 - 01:30 PM83.8°52.6°
04/30 - 01:15 PM83.7°52.4°
04/30 - 01:00 PM82.7°50.7°
04/30 - 12:45 PM82.1°52.0°
04/30 - 12:30 PM81.4°53.5°
04/30 - 12:15 PM81.1°54.1°
04/30 - 12:00 PM80.3°53.8°
04/30 - 11:45 AM80.0°53.6°
04/30 - 11:30 AM78.9°53.6°
04/30 - 11:15 AM78.1°53.1°
04/30 - 11:00 AM77.5°53.1°
04/30 - 10:45 AM76.9°52.6°
04/30 - 10:30 AM76.5°52.5°
04/30 - 10:15 AM75.3°51.8°
04/30 - 10:00 AM74.5°51.6°
04/30 - 09:45 AM73.2°51.0°
04/30 - 09:30 AM72.6°51.2°
04/30 - 09:15 AM71.5°50.8°
04/30 - 09:00 AM70.5°51.2°
04/30 - 08:45 AM69.2°50.7°
04/30 - 08:30 AM68.2°51.0°
04/30 - 08:15 AM67.0°51.9°
04/30 - 08:00 AM65.6°53.2°
04/30 - 07:45 AM64.0°53.3°
04/30 - 07:30 AM62.4°52.8°
04/30 - 07:15 AM59.9°50.5°